| time (UTC) | temp F | wind direction | speed MPH | gust MPH | rain 1hr in | rain 24hr in | rain mn in | humidity % | barometer mb |
| 20260507090520 | 71 | 264 | 0.0 | 0.0 | 0.00 | 0.00 | 0.00 | 84 | 1019.3 |
| 20260507085748 | 71 | 262 | 0.0 | 0.0 | 0.00 | 0.00 | 0.00 | 84 | 1019.4 |
| 20260507085248 | 71 | 262 | 0.0 | 0.0 | 0.00 | 0.00 | 0.00 | 84 | 1019.1 |
| 20260507084748 | 71 | 262 | 0.0 | 0.0 | 0.00 | 0.00 | 0.00 | 85 | 1019.1 |
| 20260507084520 | 71 | 278 | 0.0 | 0.0 | 0.00 | 0.00 | 0.00 | 85 | 1019.1 |
| 20260507083749 | 71 | 278 | 0.0 | 0.0 | 0.00 | 0.00 | 0.00 | 85 | 1019.3 |
| 20260507083507 | 71 | 270 | 0.0 | 0.0 | 0.00 | 0.00 | 0.00 | 85 | 1019.2 |
| 20260507082736 | 71 | 279 | 0.0 | 0.0 | 0.00 | 0.00 | 0.00 | 84 | 1019.3 |
| 20260507082237 | 71 | 280 | 0.0 | 0.0 | 0.00 | 0.00 | 0.00 | 84 | 1019.1 |
| 20260507081724 | 71 | 287 | 0.0 | 0.0 | 0.00 | 0.00 | 0.00 | 83 | 1018.9 |
| 20260507081457 | 71 | 302 | 0.0 | 0.0 | 0.00 | 0.00 | 0.00 | 83 | 1019.0 |
| 20260507080712 | 71 | 244 | 0.0 | 0.0 | 0.00 | 0.00 | 0.00 | 83 | 1018.9 |
| 20260507080213 | 71 | 244 | 0.0 | 0.0 | 0.00 | 0.00 | 0.00 | 83 | 1019.0 |
| 20260507075712 | 71 | 244 | 0.0 | 0.0 | 0.00 | 0.00 | 0.00 | 83 | 1019.2 |
| 20260507075213 | 71 | 244 | 0.0 | 0.0 | 0.00 | 0.00 | 0.00 | 83 | 1019.0 |
| 20260507074932 | 71 | 244 | 0.0 | 0.0 | 0.00 | 0.00 | 0.00 | 83 | 1019.0 |
| 20260507074201 | 71 | 244 | 0.0 | 0.0 | 0.00 | 0.00 | 0.00 | 82 | 1018.9 |
| 20260507073702 | 72 | 244 | 0.0 | 0.0 | 0.00 | 0.00 | 0.00 | 82 | 1019.2 |
| 20260507073149 | 72 | 244 | 0.0 | 0.0 | 0.00 | 0.00 | 0.00 | 82 | 1019.0 |
| 20260507072651 | 72 | 243 | 0.0 | 0.0 | 0.00 | 0.00 | 0.00 | 81 | 1019.0 |
| 20260507072126 | 72 | 243 | 0.0 | 0.0 | 0.00 | 0.00 | 0.00 | 81 | 1018.9 |
| 20260507071626 | 72 | 244 | 0.0 | 0.0 | 0.00 | 0.00 | 0.00 | 80 | 1018.9 |
| 20260507071356 | 72 | 244 | 0.0 | 0.0 | 0.00 | 0.00 | 0.00 | 80 | 1018.8 |
| 20260507070625 | 72 | 270 | 0.0 | 0.0 | 0.00 | 0.00 | 0.00 | 79 | 1018.7 |
| 20260507070356 | 72 | 270 | 0.0 | 0.0 | 0.00 | 0.00 | 0.00 | 79 | 1018.7 |
| 20260507065856 | 73 | 270 | 0.0 | 0.0 | 0.00 | 0.00 | 0.00 | 79 | 1018.7 |
| 20260507065125 | 73 | 272 | 0.0 | 0.0 | 0.00 | 0.00 | 0.00 | 78 | 1018.4 |
| 20260507064613 | 73 | 272 | 0.0 | 0.0 | 0.00 | 0.00 | 0.00 | 78 | 1018.4 |
| 20260507064112 | 73 | 273 | 0.0 | 0.0 | 0.00 | 0.00 | 0.00 | 78 | 1018.2 |
| 20260507063613 | 74 | 272 | 0.0 | 0.0 | 0.00 | 0.00 | 0.00 | 77 | 1018.4 |
| 20260507063113 | 74 | 278 | 0.0 | 0.0 | 0.00 | 0.00 | 0.00 | 77 | 1018.2 |
| 20260507062613 | 74 | 277 | 0.0 | 0.0 | 0.00 | 0.00 | 0.00 | 76 | 1018.0 |
| 20260507062344 | 74 | 62 | 0.0 | 0.0 | 0.00 | 0.00 | 0.00 | 75 | 1017.9 |
| 20260507062219 | 74 | 62 | 0.0 | 0.0 | 0.00 | 0.00 | 0.00 | 75 | 1018.0 |
| 20260507061112 | 74 | 30 | 0.0 | 0.0 | 0.00 | 0.00 | 0.00 | 75 | 1017.9 |
| 20260507060844 | 74 | 8 | 0.0 | 0.0 | 0.00 | 0.00 | 0.00 | 74 | 1017.7 |
| 20260507060112 | 74 | 42 | 0.0 | 6.0 | 0.00 | 0.00 | 0.00 | 74 | 1017.7 |
| 20260507055613 | 74 | 40 | 0.0 | 6.0 | 0.00 | 0.00 | 0.00 | 74 | 1017.7 |
| 20260507055112 | 74 | 42 | 0.0 | 6.0 | 0.00 | 0.00 | 0.00 | 75 | 1017.6 |
| 20260507054843 | 74 | 38 | 0.0 | 1.0 | 0.00 | 0.00 | 0.00 | 75 | 1017.7 |
| 20260507054343 | 75 | 34 | 0.0 | 6.0 | 0.00 | 0.00 | 0.00 | 76 | 1017.5 |
| 20260507053613 | 75 | 52 | 0.0 | 6.0 | 0.00 | 0.00 | 0.00 | 74 | 1017.7 |
| 20260507053120 | 75 | 350 | 0.0 | 5.0 | 0.00 | 0.00 | 0.00 | 74 | 1017.5 |
| 20260507053114 | 75 | 37 | 0.0 | 5.0 | 0.00 | 0.00 | 0.00 | 75 | 1017.4 |
| 20260507052112 | 75 | 32 | 0.0 | 5.0 | 0.00 | 0.00 | 0.00 | 75 | 1017.3 |
| 20260507051612 | 75 | 51 | 0.0 | 9.0 | 0.00 | 0.00 | 0.00 | 74 | 1017.2 |
| 20260507051112 | 75 | 46 | 0.0 | 9.0 | 0.00 | 0.00 | 0.00 | 75 | 1017.4 |
| 20260507050612 | 75 | 42 | 0.0 | 8.0 | 0.00 | 0.00 | 0.00 | 76 | 1017.2 |
| 20260507050343 | 75 | 29 | 0.0 | 8.0 | 0.00 | 0.00 | 0.00 | 75 | 1017.3 |
| 20260507045613 | 75 | 35 | 0.0 | 6.0 | 0.00 | 0.00 | 0.00 | 75 | 1017.2 |
| 20260507045113 | 75 | 11 | 0.0 | 9.0 | 0.00 | 0.00 | 0.00 | 75 | 1017.3 |
| 20260507044613 | 75 | 24 | 0.0 | 9.0 | 0.00 | 0.00 | 0.00 | 75 | 1017.1 |
| 20260507044112 | 75 | 48 | 0.0 | 9.0 | 0.00 | 0.00 | 0.00 | 76 | 1017.1 |
| 20260507043612 | 75 | 54 | 0.0 | 9.0 | 0.00 | 0.00 | 0.00 | 75 | 1017.3 |
| 20260507043112 | 75 | 40 | 3.0 | 9.0 | 0.00 | 0.00 | 0.00 | 76 | 1017.0 |
| 20260507042612 | 75 | 354 | 5.0 | 8.0 | 0.00 | 0.00 | 0.00 | 76 | 1017.0 |
| 20260507042112 | 75 | 40 | 3.0 | 6.0 | 0.00 | 0.00 | 0.00 | 76 | 1016.8 |
| 20260507041613 | 75 | 37 | 0.0 | 10.0 | 0.00 | 0.00 | 0.00 | 75 | 1016.7 |
| 20260507041113 | 75 | 40 | 5.0 | 10.0 | 0.00 | 0.00 | 0.00 | 75 | 1016.7 |
| 20260507040844 | 75 | 38 | 0.0 | 10.0 | 0.00 | 0.00 | 0.00 | 75 | 1016.6 |
| 20260507040113 | 75 | 46 | 0.0 | 10.0 | 0.00 | 0.00 | 0.00 | 75 | 1016.5 |
| 20260507035612 | 75 | 46 | 0.0 | 9.0 | 0.00 | 0.00 | 0.00 | 74 | 1016.6 |
| 20260507035112 | 75 | 47 | 0.0 | 9.0 | 0.00 | 0.00 | 0.00 | 75 | 1016.5 |
| 20260507034613 | 76 | 37 | 4.0 | 6.0 | 0.00 | 0.00 | 0.00 | 75 | 1016.6 |
| 20260507034343 | 76 | 28 | 2.0 | 11.0 | 0.00 | 0.00 | 0.00 | 75 | 1016.6 |
| 20260507033619 | 76 | 359 | 0.0 | 9.0 | 0.00 | 0.00 | 0.00 | 73 | 1016.3 |
| 20260507033613 | 76 | 34 | 0.0 | 11.0 | 0.00 | 0.00 | 0.00 | 74 | 1016.6 |
| 20260507032613 | 76 | 30 | 0.0 | 8.0 | 0.00 | 0.00 | 0.00 | 74 | 1016.2 |
| 20260507032112 | 76 | 11 | 2.0 | 9.0 | 0.00 | 0.00 | 0.00 | 73 | 1016.2 |
| 20260507031612 | 76 | 358 | 0.0 | 9.0 | 0.00 | 0.00 | 0.00 | 74 | 1016.5 |
| 20260507031344 | 76 | 11 | 6.0 | 8.0 | 0.00 | 0.00 | 0.00 | 73 | 1016.3 |
| 20260507030613 | 76 | 345 | 0.0 | 9.0 | 0.00 | 0.00 | 0.00 | 74 | 1016.3 |
| 20260507025549 | 76 | 6 | 0.0 | 11.0 | 0.00 | 0.00 | 0.00 | 74 | 1016.2 |
| 20260507025321 | 76 | 29 | 0.0 | 6.0 | 0.00 | 0.00 | 0.00 | 74 | 1016.3 |
| 20260507024537 | 76 | 28 | 0.0 | 9.0 | 0.00 | 0.00 | 0.00 | 75 | 1016.1 |
| 20260507024037 | 76 | 350 | 0.0 | 11.0 | 0.00 | 0.00 | 0.00 | 75 | 1016.0 |
| 20260507023536 | 76 | 347 | 0.0 | 11.0 | 0.00 | 0.00 | 0.00 | 75 | 1016.0 |
| 20260507023037 | 76 | 356 | 8.0 | 11.0 | 0.00 | 0.00 | 0.00 | 74 | 1016.1 |
| 20260507022537 | 76 | 329 | 0.0 | 9.0 | 0.00 | 0.00 | 0.00 | 75 | 1016.1 |
| 20260507022036 | 76 | 353 | 0.0 | 9.0 | 0.00 | 0.00 | 0.00 | 75 | 1016.2 |
| 20260507021807 | 76 | 12 | 0.0 | 9.0 | 0.00 | 0.00 | 0.00 | 75 | 1016.3 |
| 20260507021037 | 76 | 44 | 6.0 | 11.0 | 0.00 | 0.00 | 0.00 | 75 | 1016.0 |
| 20260507020537 | 76 | 345 | 1.0 | 11.0 | 0.00 | 0.00 | 0.00 | 74 | 1016.0 |
| 20260507020037 | 76 | 7 | 0.0 | 10.0 | 0.00 | 0.00 | 0.00 | 74 | 1016.1 |
| 20260507015537 | 77 | 16 | 0.0 | 10.0 | 0.00 | 0.00 | 0.00 | 74 | 1016.0 |
| 20260507015307 | 77 | 355 | 3.0 | 10.0 | 0.00 | 0.00 | 0.00 | 75 | 1016.2 |
| 20260507014808 | 77 | 36 | 4.0 | 13.0 | 0.00 | 0.00 | 0.00 | 75 | 1016.1 |
| 20260507014025 | 77 | 22 | 1.0 | 13.0 | 0.00 | 0.00 | 0.00 | 73 | 1016.2 |
| 20260507013757 | 77 | 342 | 6.0 | 9.0 | 0.00 | 0.00 | 0.00 | 74 | 1016.0 |
| 20260507013026 | 77 | 26 | 0.0 | 9.0 | 0.00 | 0.00 | 0.00 | 75 | 1015.9 |
| 20260507012524 | 77 | 345 | 0.0 | 11.0 | 0.00 | 0.00 | 0.00 | 74 | 1016.0 |
| 20260507012024 | 77 | 23 | 0.0 | 11.0 | 0.00 | 0.00 | 0.00 | 74 | 1016.1 |
| 20260507011526 | 77 | 36 | 0.0 | 13.0 | 0.00 | 0.00 | 0.00 | 73 | 1016.0 |
| 20260507011025 | 78 | 329 | 3.0 | 13.0 | 0.00 | 0.00 | 0.00 | 73 | 1016.0 |
| 20260507010513 | 78 | 352 | 0.0 | 9.0 | 0.00 | 0.00 | 0.00 | 74 | 1015.9 |
| 20260507010013 | 78 | 340 | 4.0 | 11.0 | 0.00 | 0.00 | 0.00 | 74 | 1016.1 |
| 20260507005744 | 78 | 35 | 0.0 | 11.0 | 0.00 | 0.00 | 0.00 | 73 | 1016.4 |
| 20260507005244 | 78 | 15 | 1.0 | 10.0 | 0.00 | 0.00 | 0.00 | 72 | 1016.2 |
| 20260507004513 | 78 | 2 | 0.0 | 10.0 | 0.00 | 0.00 | 0.00 | 73 | 1016.4 |
| 20260507004013 | 78 | 30 | 3.0 | 10.0 | 0.00 | 0.00 | 0.00 | 73 | 1016.4 |
| 20260507003512 | 78 | 19 | 0.0 | 10.0 | 0.00 | 0.00 | 0.00 | 72 | 1016.5 |
| 20260507003243 | 78 | 34 | 0.0 | 11.0 | 0.00 | 0.00 | 0.00 | 72 | 1016.5 |
| 20260507003119 | 78 | 21 | 0.0 | 11.0 | 0.00 | 0.00 | 0.00 | 73 | 1016.7 |
| 20260507002243 | 78 | 22 | 0.0 | 9.0 | 0.00 | 0.00 | 0.00 | 73 | 1016.8 |
| 20260507001745 | 78 | 338 | 6.0 | 10.0 | 0.00 | 0.00 | 0.00 | 73 | 1016.8 |
| 20260507001012 | 78 | 337 | 0.0 | 10.0 | 0.00 | 0.00 | 0.00 | 73 | 1016.6 |
| 20260507000513 | 78 | 12 | 4.0 | 9.0 | 0.00 | 0.00 | 0.00 | 74 | 1016.7 |
| 20260507000013 | 78 | 12 | 5.0 | 9.0 | 0.00 | 0.00 | 0.00 | 73 | 1016.8 |
| 20260506235512 | 78 | 11 | 0.0 | 10.0 | 0.00 | 0.00 | 0.00 | 73 | 1016.7 |
| 20260506235014 | 78 | 8 | 0.0 | 11.0 | 0.00 | 0.00 | 0.00 | 74 | 1016.8 |
| 20260506234512 | 78 | 17 | 0.0 | 11.0 | 0.00 | 0.00 | 0.00 | 73 | 1016.9 |
| 20260506234012 | 79 | 322 | 0.0 | 9.0 | 0.00 | 0.00 | 0.00 | 73 | 1016.8 |
| 20260506233519 | 79 | 7 | 0.0 | 10.0 | 0.00 | 0.00 | 0.00 | 72 | 1016.9 |
| 20260506233013 | 79 | 15 | 6.0 | 10.0 | 0.00 | 0.00 | 0.00 | 73 | 1016.9 |
| 20260506232744 | 79 | 34 | 0.0 | 9.0 | 0.00 | 0.00 | 0.00 | 73 | 1016.9 |
| 20260506232013 | 79 | 37 | 0.0 | 9.0 | 0.00 | 0.00 | 0.00 | 72 | 1017.0 |
| 20260506231512 | 79 | 354 | 6.0 | 10.0 | 0.00 | 0.00 | 0.00 | 72 | 1017.0 |
| 20260506231232 | 80 | 324 | 0.0 | 10.0 | 0.00 | 0.00 | 0.00 | 72 | 1016.9 |
| 20260506230501 | 79 | 20 | 8.0 | 9.0 | 0.00 | 0.00 | 0.00 | 73 | 1017.0 |
| 20260506230231 | 79 | 1 | 4.0 | 10.0 | 0.00 | 0.00 | 0.00 | 73 | 1017.0 |
| 20260506230107 | 78 | 14 | 3.0 | 10.0 | 0.00 | 0.00 | 0.00 | 73 | 1016.9 |
| 20260506225001 | 78 | 12 | 3.0 | 10.0 | 0.00 | 0.00 | 0.00 | 74 | 1016.9 |
| 20260506224502 | 78 | 354 | 0.0 | 10.0 | 0.00 | 0.00 | 0.00 | 75 | 1016.9 |
| 20260506224001 | 78 | 34 | 5.0 | 15.0 | 0.00 | 0.00 | 0.00 | 75 | 1016.9 |
| 20260506223502 | 78 | 346 | 1.0 | 15.0 | 0.00 | 0.00 | 0.00 | 77 | 1016.8 |
| 20260506222953 | 78 | 331 | 3.0 | 11.0 | 0.00 | 0.00 | 0.00 | 77 | 1016.8 |
| 20260506222442 | 78 | 0.0 | 0.0 | 0.00 | 0.00 | 0.00 | 76 | ||
| 20260506142255 | 66 | 250 | 0.0 | 0.0 | 0.00 | 0.00 | 0.00 | 91 | 1015.3 |
| 20260506141755 | 66 | 256 | 0.0 | 0.0 | 0.00 | 0.00 | 0.00 | 91 | 1015.0 |
| 20260506141256 | 66 | 275 | 0.0 | 0.0 | 0.00 | 0.00 | 0.00 | 91 | 1015.2 |
| 20260506140758 | 66 | 240 | 0.0 | 0.0 | 0.00 | 0.00 | 0.00 | 91 | 1015.2 |
| 20260506140255 | 66 | 250 | 0.0 | 0.0 | 0.00 | 0.00 | 0.00 | 91 | 1015.3 |
| 20260506140027 | 66 | 243 | 0.0 | 0.0 | 0.00 | 0.00 | 0.00 | 91 | 1015.1 |
| 20260506135256 | 66 | 272 | 0.0 | 0.0 | 0.00 | 0.00 | 0.00 | 91 | 1015.1 |
| 20260506135027 | 66 | 229 | 0.0 | 0.0 | 0.00 | 0.00 | 0.00 | 91 | 1015.3 |
| 20260506134256 | 66 | 234 | 0.0 | 0.0 | 0.00 | 0.00 | 0.00 | 91 | 1015.1 |
| 20260506133744 | 66 | 255 | 0.0 | 0.0 | 0.00 | 0.00 | 0.00 | 91 | 1015.0 |
| 20260506133244 | 66 | 277 | 0.0 | 0.0 | 0.00 | 0.00 | 0.00 | 91 | 1014.9 |
| 20260506132744 | 66 | 279 | 0.0 | 0.0 | 0.00 | 0.00 | 0.00 | 91 | 1015.0 |
| 20260506132244 | 66 | 296 | 0.0 | 0.0 | 0.00 | 0.00 | 0.00 | 91 | 1015.2 |
| 20260506131745 | 66 | 267 | 0.0 | 0.0 | 0.00 | 0.00 | 0.00 | 90 | 1015.0 |
| 20260506131243 | 66 | 275 | 0.0 | 0.0 | 0.00 | 0.00 | 0.00 | 90 | 1015.2 |
| 20260506130744 | 66 | 264 | 0.0 | 0.0 | 0.00 | 0.00 | 0.00 | 90 | 1015.2 |
| 20260506130515 | 66 | 250 | 0.0 | 0.0 | 0.00 | 0.00 | 0.00 | 90 | 1015.1 |
| 20260506130014 | 66 | 246 | 0.0 | 0.0 | 0.00 | 0.00 | 0.00 | 91 | 1015.3 |
| 20260506125245 | 66 | 242 | 0.0 | 0.0 | 0.00 | 0.00 | 0.00 | 90 | 1015.2 |
| 20260506124743 | 66 | 241 | 0.0 | 0.0 | 0.00 | 0.00 | 0.00 | 90 | 1015.1 |
| 20260506124514 | 66 | 243 | 0.0 | 0.0 | 0.00 | 0.00 | 0.00 | 90 | 1015.4 |
| 20260506123732 | 66 | 243 | 0.0 | 0.0 | 0.00 | 0.00 | 0.00 | 90 | 1015.4 |
| 20260506123232 | 66 | 243 | 0.0 | 0.0 | 0.00 | 0.00 | 0.00 | 90 | 1015.6 |
| 20260506122951 | 66 | 244 | 0.0 | 0.0 | 0.00 | 0.00 | 0.00 | 90 | 1015.5 |
| 20260506122220 | 66 | 243 | 0.0 | 0.0 | 0.00 | 0.00 | 0.00 | 91 | 1015.4 |
| 20260506121721 | 66 | 234 | 0.0 | 0.0 | 0.00 | 0.00 | 0.00 | 90 | 1015.6 |
| 20260506121208 | 66 | 229 | 0.0 | 0.0 | 0.00 | 0.00 | 0.00 | 90 | 1015.5 |
| 20260506120708 | 66 | 229 | 0.0 | 0.0 | 0.00 | 0.00 | 0.00 | 90 | 1015.9 |
| 20260506120208 | 66 | 229 | 0.0 | 0.0 | 0.00 | 0.00 | 0.00 | 90 | 1015.8 |
| 20260506115655 | 67 | 229 | 0.0 | 0.0 | 0.00 | 0.00 | 0.00 | 90 | 1016.0 |
| 20260506115155 | 67 | 229 | 0.0 | 0.0 | 0.00 | 0.00 | 0.00 | 90 | 1016.1 |
| 20260506114656 | 67 | 229 | 0.0 | 0.0 | 0.00 | 0.00 | 0.00 | 90 | 1016.1 |
| 20260506114418 | 67 | 229 | 0.0 | 0.0 | 0.00 | 0.00 | 0.00 | 90 | 1016.2 |
| 20260506114250 | 67 | 229 | 0.0 | 0.0 | 0.00 | 0.00 | 0.00 | 90 | 1016.1 |
| 20260506113143 | 67 | 229 | 0.0 | 0.0 | 0.00 | 0.00 | 0.00 | 90 | 1016.3 |
| 20260506112645 | 67 | 229 | 0.0 | 0.0 | 0.00 | 0.00 | 0.00 | 90 | 1016.3 |
| 20260506112131 | 67 | 229 | 0.0 | 0.0 | 0.00 | 0.00 | 0.00 | 90 | 1016.5 |
| 20260506111633 | 67 | 229 | 0.0 | 0.0 | 0.00 | 0.00 | 0.00 | 90 | 1016.3 |
| 20260506111107 | 67 | 229 | 0.0 | 0.0 | 0.00 | 0.00 | 0.00 | 90 | 1016.3 |
| 20260506110608 | 67 | 229 | 0.0 | 0.0 | 0.00 | 0.00 | 0.00 | 90 | 1016.4 |
| 20260506110058 | 67 | 228 | 0.0 | 0.0 | 0.00 | 0.00 | 0.00 | 90 | 1016.4 |
| 20260506105555 | 67 | 229 | 0.0 | 0.0 | 0.00 | 0.00 | 0.00 | 90 | 1016.6 |
| 20260506105055 | 67 | 229 | 0.0 | 0.0 | 0.00 | 0.00 | 0.00 | 90 | 1016.6 |
| 20260506104802 | 67 | 229 | 0.0 | 0.0 | 0.00 | 0.00 | 0.00 | 90 | 1016.9 |
| 20260506104302 | 67 | 229 | 0.0 | 0.0 | 0.00 | 0.00 | 0.00 | 90 | 1016.6 |
| 20260506103532 | 67 | 229 | 0.0 | 0.0 | 0.00 | 0.00 | 0.00 | 90 | 1016.8 |
| 20260506103032 | 67 | 229 | 0.0 | 0.0 | 0.00 | 0.00 | 0.00 | 90 | 1016.7 |
| 20260506102534 | 67 | 229 | 0.0 | 0.0 | 0.00 | 0.00 | 0.00 | 90 | 1017.0 |
| 20260506102032 | 67 | 229 | 0.0 | 0.0 | 0.00 | 0.00 | 0.00 | 89 | 1017.0 |
| 20260506101520 | 67 | 229 | 0.0 | 0.0 | 0.00 | 0.00 | 0.00 | 89 | 1016.9 |
| 20260506101250 | 67 | 229 | 0.0 | 0.0 | 0.00 | 0.00 | 0.00 | 89 | 1016.9 |
| 20260506100519 | 67 | 225 | 0.0 | 0.0 | 0.00 | 0.00 | 0.00 | 89 | 1017.0 |
| 20260506100008 | 67 | 225 | 0.0 | 0.0 | 0.00 | 0.00 | 0.00 | 89 | 1016.9 |
| 20260506095508 | 67 | 225 | 0.0 | 0.0 | 0.00 | 0.00 | 0.00 | 89 | 1017.0 |
| 20260506095008 | 67 | 225 | 0.0 | 0.0 | 0.00 | 0.00 | 0.00 | 89 | 1016.9 |
| 20260506094507 | 68 | 225 | 0.0 | 0.0 | 0.00 | 0.00 | 0.00 | 89 | 1017.0 |
| 20260506094007 | 68 | 225 | 0.0 | 0.0 | 0.00 | 0.00 | 0.00 | 89 | 1016.9 |
| 20260506093507 | 68 | 225 | 0.0 | 0.0 | 0.00 | 0.00 | 0.00 | 89 | 1017.0 |
| 20260506093239 | 68 | 225 | 0.0 | 0.0 | 0.00 | 0.00 | 0.00 | 89 | 1017.0 |
| 20260506092508 | 68 | 225 | 0.0 | 0.0 | 0.00 | 0.00 | 0.00 | 89 | 1017.1 |
| 20260506092008 | 68 | 225 | 0.0 | 0.0 | 0.00 | 0.00 | 0.00 | 89 | 1017.1 |
| 20260506091739 | 68 | 225 | 0.0 | 0.0 | 0.00 | 0.00 | 0.00 | 89 | 1017.3 |
| 20260506091240 | 68 | 225 | 0.0 | 0.0 | 0.00 | 0.00 | 0.00 | 89 | 1017.3 |